GLOBALSTAR M001 1 25162U 98008A 25348.23151338 -.00000051 00000+0 34742-3 0 9998 2 25162 52.0003 169.1845 0000257 302.1922 228.8395 12.38223594266016 GLOBALSTAR M004 1 25163U 98008B 25348.15916009 -.00000065 00000+0 21472-3 0 9995 2 25163 51.9991 225.0962 0003138 348.9102 182.7171 12.63411063284436 GLOBALSTAR M002 1 25164U 98008C 25348.19700528 -.00000056 00000+0 39789-3 0 9997 2 25164 51.9982 148.8569 0002636 107.8611 252.2497 11.61514717204984 GLOBALSTAR M003 1 25165U 98008D 25348.31256078 -.00000194 00000+0 -11177-2 0 9992 2 25165 51.9927 29.6281 0007697 295.9740 144.8562 12.12042553255060 GLOBALSTAR M014 1 25306U 98023A 25348.21931106 -.00000089 00000+0 -22175-3 0 9991 2 25306 51.9853 68.2383 0000344 0.0897 25.7508 11.65483635212165 GLOBALSTAR M006 1 25307U 98023B 25348.10158869 -.00000060 00000+0 32441-3 0 9992 2 25307 51.9920 127.7338 0004132 84.0060 86.7984 11.58178818237679 GLOBALSTAR M015 1 25308U 98023C 25348.17594699 -.00000074 00000+0 -93526-5 0 9994 2 25308 51.9808 234.2733 0013494 38.5916 126.2299 11.48862705214761 GLOBALSTAR M008 1 25309U 98023D 25348.32034914 -.00000090 00000+0 44480-4 0 9992 2 25309 51.9989 35.7973 0002874 187.5128 252.6825 12.36076687260126 GLOBALSTAR M023 1 25621U 99004A 25348.08968855 -.00000071 00000+0 18249-3 0 9994 2 25621 52.0093 225.6310 0010001 159.9683 349.5132 12.62510345238457 GLOBALSTAR M040 1 25622U 99004B 25348.13809889 -.00000094 00000+0 55253-4 0 9994 2 25622 51.9905 229.9032 0001879 67.6086 97.5951 12.62025059237979 GLOBALSTAR M036 1 25623U 99004C 25348.16405286 -.00000064 00000+0 27810-3 0 9995 2 25623 51.9951 125.9315 0010871 39.9016 131.2876 11.86618392200343 GLOBALSTAR M038 1 25624U 99004D 25348.23260994 -.00000074 00000+0 17676-3 0 9999 2 25624 51.9982 273.0575 0002561 63.6295 102.2340 12.32537385224570 GLOBALSTAR M022 1 25649U 99012A 25348.22480507 -.00000051 00000+0 43546-3 0 9998 2 25649 52.0009 161.4730 0003224 146.9873 23.9835 12.02508039198036 GLOBALSTAR M041 1 25650U 99012B 25348.30152153 -.00000098 00000+0 -16944-3 0 9996 2 25650 52.0038 48.2066 0000719 322.8291 37.2496 11.96681282199844 GLOBALSTAR M046 1 25651U 99012C 25348.34208159 -.00000206 00000+0 -12955-2 0 9997 2 25651 52.0048 104.7113 0001463 226.8573 164.0336 12.09416572205461 GLOBALSTAR M037 1 25652U 99012D 25348.21935172 -.00000056 00000+0 26637-3 0 9991 2 25652 52.0026 355.7863 0001840 221.1134 219.2076 12.62458351234015 GLOBALSTAR M045 1 25676U 99019A 25348.22853603 -.00000062 00000+0 28212-3 0 9991 2 25676 51.9940 152.1085 0001035 111.8874 59.0353 12.27070555215497 GLOBALSTAR M019 1 25677U 99019B 25348.28673832 .00000006 00000+0 10039-2 0 9996 2 25677 51.9889 294.9845 0001607 345.7851 161.9358 12.13876513207017 GLOBALSTAR M044 1 25678U 99019C 25348.25388568 -.00000045 00000+0 53496-3 0 9992 2 25678 51.9975 268.9625 0006798 28.6480 139.6781 11.90261463192765 GLOBALSTAR M042 1 25679U 99019D 25348.18238422 -.00000027 00000+0 61736-3 0 9994 2 25679 52.0019 262.8198 0002942 327.4771 179.9936 12.22094060207269 GLOBALSTAR M025 1 25770U 99031A 25348.25281666 -.00000054 00000+0 42780-3 0 9994 2 25770 51.9812 102.1331 0003031 94.6291 275.6499 11.22558917501939 GLOBALSTAR M049 1 25771U 99031B 25348.11179050 -.00000109 00000+0 -15282-2 0 9991 2 25771 51.9842 146.2658 0002176 340.0696 20.0015 11.12123826137443 GLOBALSTAR M047 1 25772U 99031C 25347.85507418 -.00000082 00000+0 -34509-3 0 9999 2 25772 51.9813 126.6511 0016182 207.3778 152.6176 11.31931723491458 GLOBALSTAR M052 1 25773U 99031D 25348.17100519 -.00000105 00000+0 -13219-2 0 9997 2 25773 51.9863 252.2773 0003292 94.6920 76.0772 11.15062411498587 GLOBALSTAR M035 1 25851U 99037A 25348.31101933 -.00000108 00000+0 -16795-2 0 9992 2 25851 51.9983 13.2697 0013548 273.0985 172.8881 11.04540340116163 GLOBALSTAR M032 1 25852U 99037B 25348.22926853 -.00000059 00000+0 26364-3 0 9997 2 25852 51.9913 186.2315 0013751 107.6419 252.5883 11.19075083154944 GLOBALSTAR M051 1 25853U 99037C 25348.33066833 -.00000109 00000+0 -90223-3 0 9995 2 25853 51.9823 326.3167 0000132 51.0706 309.0117 11.42203421152971 GLOBALSTAR M030 1 25854U 99037D 25348.07532570 -.00000049 00000+0 56090-3 0 9999 2 25854 51.9864 121.5964 0003375 31.0422 329.0594 11.55110161170830 GLOBALSTAR M048 1 25872U 99041A 25348.15185682 -.00000063 00000+0 18749-3 0 9996 2 25872 51.9375 268.7408 0013314 132.4581 7.1071 11.33860896145390 GLOBALSTAR M026 1 25873U 99041B 25348.16416414 -.00000009 00000+0 20278-2 0 9997 2 25873 51.9988 129.6553 0001869 170.3218 0.8904 11.06849392168418 GLOBALSTAR M043 1 25874U 99041C 25348.35298433 -.00000029 00000+0 11787-2 0 9995 2 25874 51.9430 23.0835 0013444 256.3547 190.9453 11.25697018143165 GLOBALSTAR M028 1 25875U 99041D 25348.22165766 -.00000093 00000+0 52738-4 0 9998 2 25875 51.9644 16.2283 0063578 102.5885 258.2096 12.50592534212708 GLOBALSTAR M024 1 25883U 99043A 25348.28573472 -.00000111 00000+0 -16219-2 0 9996 2 25883 52.0046 334.2558 0001668 27.8126 74.2177 11.10166593134865 GLOBALSTAR M027 1 25884U 99043B 25348.16309635 -.00000054 00000+0 35636-3 0 9992 2 25884 52.0233 57.6125 0020981 281.0169 78.8264 11.04372156161123 GLOBALSTAR M054 1 25885U 99043C 25348.19995186 -.00000042 00000+0 74818-3 0 9990 2 25885 52.0103 154.6199 0005960 120.4650 50.5184 11.39224849139564 GLOBALSTAR M053 1 25886U 99043D 25348.36263091 -.00000065 00000+0 10581-3 0 9995 2 25886 51.9972 111.3207 0003639 47.6302 345.3662 11.27668981139777 GLOBALSTAR M058 1 25907U 99049A 25348.24742110 -.00000089 00000+0 -67554-4 0 9996 2 25907 51.9970 348.3633 0001727 260.6206 99.4434 11.93206654563032 GLOBALSTAR M050 1 25908U 99049B 25348.25161398 -.00000126 00000+0 -43055-3 0 9992 2 25908 52.0011 342.5750 0009283 30.9168 343.0811 12.07461930169942 GLOBALSTAR M033 1 25909U 99049C 25348.30473041 -.00000033 00000+0 56625-3 0 9993 2 25909 51.9883 201.8218 0013124 276.8280 83.1074 12.20294485557734 GLOBALSTAR M055 1 25910U 99049D 25348.01157116 -.00000054 00000+0 34766-3 0 9990 2 25910 51.9993 204.6374 0007552 136.5884 223.5564 12.29437996190408 GLOBALSTAR M057 1 25943U 99058A 25348.30025386 -.00000036 00000+0 52171-3 0 9991 2 25943 51.9957 197.0412 0003256 40.1944 319.9146 12.24832041189001 GLOBALSTAR M059 1 25944U 99058B 25348.25350841 -.00000088 00000+0 -21719-4 0 9996 2 25944 52.0028 80.0295 0000519 118.8379 267.5495 11.99988159595668 GLOBALSTAR M056 1 25945U 99058C 25348.28415397 -.00000124 00000+0 -42910-3 0 9994 2 25945 51.9973 77.2899 0001447 160.1137 233.3688 12.04781095184337 GLOBALSTAR M031 1 25946U 99058D 25348.36232170 .00000006 00000+0 98134-3 0 9996 2 25946 51.9980 318.6141 0001072 178.3637 348.0247 12.16044910186460 GLOBALSTAR M039 1 25961U 99062A 25348.29912208 -.00000059 00000+0 25105-3 0 9994 2 25961 51.9851 80.1227 0002636 43.8991 316.2084 12.62339416202965 GLOBALSTAR M034 1 25962U 99062B 25348.23238080 -.00000031 00000+0 79607-3 0 9994 2 25962 51.9875 263.3728 0015033 23.5992 145.0048 11.79453952159636 GLOBALSTAR M029 1 25963U 99062C 25348.29427579 -.00000090 00000+0 -45020-4 0 9993 2 25963 51.9832 327.8028 0002542 104.0153 5.2755 11.99903770190743 GLOBALSTAR M061 1 25964U 99062D 25348.36124220 -.00000099 00000+0 -30157-3 0 9992 2 25964 51.9793 89.4611 0005058 303.4878 98.5845 11.76778028142397 GLOBALSTAR M063 1 26081U 00008A 25348.33009073 -.00000130 00000+0 -69287-3 0 9992 2 26081 51.9986 357.1366 0004557 300.8586 160.1338 11.86178668178953 GLOBALSTAR M062 1 26082U 00008B 25348.28079953 -.00000122 00000+0 -16951-3 0 9992 2 26082 51.9863 286.1759 0007192 130.9559 34.4254 12.43478902519020 GLOBALSTAR M060 1 26083U 00008C 25348.18020846 -.00000069 00000+0 21422-3 0 9997 2 26083 52.0022 271.9461 0003480 116.4463 30.9638 12.17670677174298 GLOBALSTAR M064 1 26084U 00008D 25348.28431202 -.00000089 00000+0 -83799-4 0 9990 2 26084 52.0031 93.9610 0001872 72.4386 287.6652 11.88539382188516 GLOBALSTAR M065 1 31571U 07020A 25348.33082745 -.00000100 00000+0 19488-4 0 9995 2 31571 51.9913 37.9617 0009596 349.5055 90.8407 12.62015721856150 GLOBALSTAR M069 1 31573U 07020C 25348.22451708 -.00000069 00000+0 21566-3 0 9997 2 31573 52.0046 55.6403 0002407 128.8051 269.4825 12.23464566856160 GLOBALSTAR M072 1 31574U 07020D 25348.11919909 -.00000070 00000+0 19234-3 0 9999 2 31574 51.9917 232.9483 0001220 3.7645 148.1244 11.91654281852912 GLOBALSTAR M071 1 31576U 07020F 25348.29564400 -.00000149 00000+0 -56937-3 0 9991 2 31576 52.0072 86.1344 0001673 118.2605 273.8367 12.18262925516899 GLOBALSTAR M067 1 32263U 07048A 25348.17297013 -.00000083 00000+0 10865-3 0 9991 2 32263 51.9713 229.2744 0001864 36.7875 131.2015 12.40682815831821 GLOBALSTAR M070 1 32264U 07048B 25348.29340622 -.00000078 00000+0 14331-3 0 9996 2 32264 51.9765 299.8219 0000389 65.7791 98.7226 12.62327375836411 GLOBALSTAR M066 1 32265U 07048C 25348.12314381 -.00000081 00000+0 11379-3 0 9995 2 32265 51.9577 229.1790 0005541 23.9310 142.0633 12.30383084837444 GLOBALSTAR M068 1 32266U 07048D 25348.36837550 -.00000059 00000+0 24625-3 0 9993 2 32266 51.9876 112.9967 0001735 144.0887 257.7653 12.62835366840324 GLOBALSTAR M079 1 37188U 10054A 25348.25833653 -.00000089 00000+0 80700-4 0 9990 2 37188 52.0057 311.6212 0000539 20.3444 118.1668 12.62269176699195 GLOBALSTAR M074 1 37189U 10054B 25348.36871916 -.00000095 00000+0 49168-4 0 9997 2 37189 52.0035 310.5798 0000638 53.6338 106.3918 12.62264087699812 GLOBALSTAR M076 1 37190U 10054C 25348.31325209 -.00000085 00000+0 10336-3 0 9996 2 37190 52.0046 310.9372 0000704 39.5780 107.1431 12.62268115699529 GLOBALSTAR M077 1 37191U 10054D 25348.28761237 -.00000080 00000+0 -38407-4 0 9994 2 37191 51.9988 288.9661 0001078 23.7985 144.7536 11.68176693699533 GLOBALSTAR M075 1 37192U 10054E 25348.31680473 -.00000086 00000+0 98398-4 0 9991 2 37192 51.9970 353.0810 0000297 82.3150 22.1888 12.62270481698591 GLOBALSTAR M073 1 37193U 10054F 25348.16708213 -.00000092 00000+0 64094-4 0 9991 2 37193 52.0068 267.4977 0000822 44.7360 96.8614 12.62267915700567 GLOBALSTAR M083 1 37739U 11033A 25348.34476836 -.00000086 00000+0 10035-3 0 9996 2 37739 51.9840 215.4380 0000923 64.9372 106.4684 12.62265620669604 GLOBALSTAR M088 1 37740U 11033B 25348.36576262 -.00000093 00000+0 59842-4 0 9992 2 37740 52.0201 121.3511 0001005 113.0499 273.0660 12.62271080665156 GLOBALSTAR M091 1 37741U 11033C 25348.29808196 -.00000102 00000+0 11401-4 0 9999 2 37741 52.0009 84.7971 0000689 128.1729 249.4814 12.62268082665937 GLOBALSTAR M085 1 37742U 11033D 25348.12806784 -.00000097 00000+0 37134-4 0 9997 2 37742 52.0143 36.4450 0000307 155.7477 229.6863 12.62267313666421 GLOBALSTAR M081 1 37743U 11033E 25348.32445433 -.00000095 00000+0 51667-4 0 9995 2 37743 51.9977 38.4927 0000276 111.6041 327.3013 12.62270886666599 GLOBALSTAR M089 1 37744U 11033F 25348.27028303 -.00000082 00000+0 12072-3 0 9995 2 37744 51.9952 352.8522 0000575 73.5772 299.5669 12.62262267667431 GLOBALSTAR M084 1 38040U 11080A 25348.16138664 -.00000085 00000+0 10553-3 0 9992 2 38040 51.9993 220.5689 0001277 71.8888 105.1125 12.62266617645393 GLOBALSTAR M080 1 38041U 11080B 25348.13021041 -.00000084 00000+0 10995-3 0 9999 2 38041 52.0041 222.3178 0000670 98.3314 66.9022 12.62264844645511 GLOBALSTAR M082 1 38042U 11080C 25348.30551223 -.00000078 00000+0 14573-3 0 9998 2 38042 52.0045 177.2647 0000858 103.3257 68.5270 12.62266229646249 GLOBALSTAR M092 1 38043U 11080D 25348.19844856 -.00000092 00000+0 65746-4 0 9998 2 38043 52.0088 267.9779 0000773 61.7617 102.9335 12.62268349644689 GLOBALSTAR M090 1 38044U 11080E 25348.25288863 -.00000077 00000+0 14814-3 0 9998 2 38044 52.0094 171.3214 0000934 87.7342 83.7895 12.62265495646353 GLOBALSTAR M086 1 38045U 11080F 25348.27701426 -.00000070 00000+0 18886-3 0 9992 2 38045 51.9867 171.4787 0001406 40.1588 130.7823 12.62281141646301 GLOBALSTAR M097 1 39072U 13005A 25348.26754965 -.00000106 00000+0 -13168-4 0 9997 2 39072 52.0050 86.2459 0000572 110.6395 249.4534 12.62267831593554 GLOBALSTAR M093 1 39073U 13005B 25348.24146045 -.00000103 00000+0 51097-5 0 9990 2 39073 52.0112 79.6030 0000333 116.3074 243.7827 12.62271098593504 GLOBALSTAR M094 1 39074U 13005C 25348.32049797 -.00000089 00000+0 81281-4 0 9996 2 39074 51.9976 353.6641 0000174 19.5412 340.5461 12.62265361595123 GLOBALSTAR M096 1 39075U 13005D 25348.17518456 -.00000103 00000+0 63103-5 0 9994 2 39075 52.0089 42.7600 0000249 145.8143 214.2740 12.62269332594026 GLOBALSTAR M078 1 39076U 13005E 25348.30756602 -.00000086 00000+0 99331-4 0 9998 2 39076 51.9858 126.6241 0000943 165.1778 194.9117 12.62272516592660 GLOBALSTAR M095 1 39077U 13005F 25348.33380441 -.00000093 00000+0 58406-4 0 9992 2 39077 52.0064 123.8852 0000607 130.2018 229.8902 12.62267302592528 GLOBALSTAR M087 1 52888U 22064A 25348.10928522 -.00000086 00000+0 10038-3 0 9995 2 52888 52.0001 265.9140 0000606 44.8165 315.2750 12.62261380167769